CW0343 Weather Reports


Display with metric or nautical units.
time (UTC)temp
F
wind
direction
speed
MPH
gust
MPH
rain 1hr
in
rain 24hr
in
rain mn
in
humidity
%
barometer
mb
20260508032804 79 123 7.0 7.0 0.00 0.00 0.00 67 1014.8
20260508031806 79 145 5.0 8.0 0.00 0.00 0.00 67 1015.2
20260508031305 79 124 7.0 12.0 0.00 0.00 0.00 67 1015.3
20260508030805 79 102 3.0 6.0 0.00 0.00 0.00 67 1015.4
20260508025804 78 118 5.0 8.0 0.00 0.00 0.00 67 1015.5
20260508025306 78 99 6.0 9.0 0.00 0.00 0.00 68 1015.7
20260508024805 78 139 6.0 12.0 0.00 0.00 0.00 68 1015.7
20260508024305 78 103 6.0 8.0 0.00 0.00 0.00 68 1015.8
20260508023805 78 102 6.0 9.0 0.00 0.00 0.00 67 1015.9
20260508023304 79 93 11.0 12.0 0.00 0.00 0.00 68 1016.0
20260508022804 79 97 5.0 12.0 0.00 0.00 0.00 69 1016.1
20260508022307 78 136 3.0 9.0 0.00 0.00 0.00 70 1016.2
20260508021805 77 133 11.0 13.0 0.00 0.00 0.00 73 1016.3
20260508021305 77 153 7.0 12.0 0.00 0.00 0.00 73 1016.4
20260508020805 79 3 0.0 0.0 0.00 0.00 0.00 66 1016.5
20260508020305 79 3 0.0 0.0 0.00 0.00 0.00 66 1016.6
20260508015306 79 3 0.0 0.0 0.00 0.00 0.00 66 1016.5
20260508014804 79 3 0.0 0.0 0.00 0.00 0.00 66 1016.6
20260508014304 79 3 0.0 0.0 0.00 0.00 0.00 66 1016.6
20260508013804 79 3 0.0 3.0 0.00 0.00 0.00 66 1016.6
20260508013304 79 105 3.0 3.0 0.00 0.00 0.00 66 1016.6
20260508012804 79 105 3.0 3.0 0.00 0.00 0.00 66 1016.6
20260508011805 80 68 10.0 10.0 0.00 0.00 0.00 66 1016.6
20260508011305 80 78 8.0 15.0 0.00 0.00 0.00 66 1016.6
20260508010805 79 132 7.0 12.0 0.00 0.00 0.00 67 1016.6
20260508010304 79 24 6.0 10.0 0.00 0.00 0.00 68 1016.6
20260508005806 78 103 5.0 13.0 0.00 0.00 0.00 69 1016.8
20260508005306 78 79 6.0 8.0 0.00 0.00 0.00 69 1016.9
20260508004805 78 100 8.0 12.0 0.00 0.00 0.00 69 1017.0
20260508004304 78 102 12.0 12.0 0.00 0.00 0.00 70 1017.0
20260508003804 78 105 9.0 14.0 0.00 0.00 0.00 70 1017.0
20260508003305 78 80 7.0 14.0 0.00 0.00 0.00 70 1017.0
20260508002805 77 84 7.0 13.0 0.00 0.00 0.00 72 1017.0
20260508001804 76 139 6.0 10.0 0.00 0.00 0.00 72 1017.1
20260508001305 76 113 4.0 9.0 0.00 0.00 0.00 74 1017.1
20260508000805 75 93 6.0 10.0 0.00 0.00 0.00 74 1017.2
20260508000305 75 105 7.0 10.0 0.00 0.00 0.00 74 1017.1
20260507235806 75 116 6.0 10.0 0.00 0.00 0.00 74 1017.0
20260507235307 75 94 5.0 8.0 0.00 0.00 0.00 75 1017.1
20260507234804 74 136 6.0 10.0 0.00 0.00 0.00 76 1017.2
20260507233804 73 115 5.0 9.0 0.00 0.00 0.00 77 1017.1
20260507233306 73 131 6.0 9.0 0.00 0.00 0.00 77 1017.1
20260507232805 73 84 4.0 7.0 0.00 0.00 0.00 78 1017.1
20260507232306 72 97 3.0 6.0 0.00 0.00 0.00 78 1017.1
20260507231804 72 106 3.0 3.0 0.00 0.00 0.00 78 1017.1
20260507231304 72 102 4.0 8.0 0.00 0.00 0.00 78 1017.1
20260507230817 72 91 3.0 7.0 0.00 0.00 0.00 78 1017.0
20260507230304 72 112 3.0 6.0 0.00 0.00 0.00 79 1017.0
20260507225804 71 126 4.0 9.0 0.00 0.00 0.00 79 1017.0
20260507225306 71 127 3.0 8.0 0.00 0.00 0.00 79 1017.0
20260507224805 71 105 8.0 8.0 0.00 0.00 0.00 80 1016.9
20260507223804 70 130 4.0 7.0 0.00 0.00 0.00 80 1016.9
20260507223305 70 151 3.0 7.0 0.00 0.00 0.00 80 1016.7
20260507222804 70 153 2.0 3.0 0.00 0.00 0.00 80 1016.7
20260507222306 70 140 2.0 5.0 0.00 0.00 0.00 80 1016.8
20260507221805 69 2 0.0 0.0 0.00 0.00 0.00 82 1016.6
20260507221306 69 6 2.0 3.0 0.00 0.00 0.00 82 1016.6
20260507220804 69 145 3.0 3.0 0.00 0.00 0.00 82 1016.6
20260507220305 69 145 4.0 9.0 0.00 0.00 0.00 82 1016.4
20260507215306 68 142 3.0 3.0 0.00 0.00 0.00 82 1016.2
20260507214804 68 137 4.0 12.0 0.00 0.00 0.00 82 1016.2
20260507214304 68 123 4.0 10.0 0.00 0.00 0.00 82 1016.1
20260507213304 68 138 6.0 12.0 0.00 0.00 0.00 83 1016.0
20260507212804 67 150 5.0 9.0 0.00 0.00 0.00 83 1016.0
20260507212307 67 139 5.0 12.0 0.00 0.00 0.00 83 1016.0
20260507211305 67 150 1.0 5.0 0.00 0.00 0.00 84 1015.9
20260507210804 66 140 1.0 3.0 0.00 0.00 0.00 84 1015.9
20260507210304 66 138 1.0 3.0 0.00 0.00 0.00 84 1015.8
20260507205805 66 130 1.0 3.0 0.00 0.00 0.00 83 1015.8
20260507205307 66 131 1.0 3.0 0.00 0.00 0.00 83 1015.7
20260507204805 66 126 1.0 3.0 0.00 0.00 0.00 83 1015.7
20260507204305 66 118 2.0 6.0 0.00 0.00 0.00 83 1015.7
20260507203805 66 101 1.0 3.0 0.00 0.00 0.00 83 1015.6
20260507203304 66 103 2.0 6.0 0.00 0.00 0.00 83 1015.6
20260507202804 66 106 3.0 8.0 0.00 0.00 0.00 83 1015.5
20260507202306 66 102 5.0 8.0 0.00 0.00 0.00 84 1015.5
20260507201804 66 105 5.0 8.0 0.00 0.00 0.00 84 1015.4
20260507201305 66 139 6.0 12.0 0.00 0.00 0.00 84 1015.5
20260507200805 66 119 3.0 9.0 0.00 0.00 0.00 84 1015.5
20260507200304 66 138 6.0 10.0 0.00 0.00 0.00 84 1015.5
20260507195805 66 153 2.0 10.0 0.00 0.00 0.00 84 1015.5
20260507194805 66 148 6.0 12.0 0.00 0.00 0.00 84 1015.3
20260507193804 66 138 5.0 10.0 0.00 0.00 0.00 84 1015.2
20260507193304 66 137 6.0 12.0 0.00 0.00 0.00 84 1015.2
20260507192804 66 139 4.0 10.0 0.00 0.00 0.00 84 1015.2
20260507192306 66 149 5.0 12.0 0.00 0.00 0.00 84 1015.2
20260507191805 66 129 3.0 10.0 0.00 0.00 0.00 84 1015.1
20260507191304 66 140 5.0 10.0 0.00 0.00 0.00 84 1015.2
20260507190804 66 140 9.0 16.0 0.00 0.00 0.00 84 1015.1
20260507190304 66 152 7.0 15.0 0.00 0.00 0.00 84 1015.0
20260507185804 66 162 6.0 13.0 0.00 0.00 0.00 84 1014.9
20260507185306 66 156 7.0 12.0 0.00 0.00 0.00 84 1015.0
20260507184804 66 160 6.0 13.0 0.00 0.00 0.00 84 1015.0
20260507183805 66 145 6.0 14.0 0.00 0.00 0.00 84 1014.9
20260507183306 66 131 7.0 12.0 0.00 0.00 0.00 84 1014.8
20260507182805 66 146 4.0 12.0 0.00 0.00 0.00 84 1014.8
20260507181804 66 165 3.0 10.0 0.00 0.00 0.00 84 1014.7
20260507181304 65 154 6.0 9.0 0.00 0.00 0.00 84 1014.8
20260507180805 65 158 5.0 7.0 0.00 0.00 0.00 84 1014.8
20260507180305 65 162 2.0 6.0 0.00 0.00 0.00 84 1014.8
20260507175804 66 189 2.0 3.0 0.00 0.00 0.00 84 1014.8
20260507175307 66 144 2.0 3.0 0.00 0.00 0.00 84 1014.8
20260507174804 65 164 5.0 10.0 0.00 0.00 0.00 84 1014.8
20260507174305 65 128 2.0 6.0 0.00 0.00 0.00 84 1014.7
20260507172804 65 146 2.0 5.0 0.00 0.00 0.00 84 1014.8
20260507171805 66 109 2.0 7.0 0.00 0.00 0.00 84 1014.9
20260507171306 66 138 2.0 7.0 0.00 0.00 0.00 84 1015.0
20260507170304 66 140 3.0 6.0 0.00 0.00 0.00 84 1014.9
20260507165306 66 109 1.0 3.0 0.00 0.00 0.00 84 1015.0
20260507164804 66 121 2.0 6.0 0.00 0.00 0.00 84 1015.0
20260507164304 66 129 2.0 3.0 0.00 0.00 0.00 84 1015.0
20260507163804 66 151 3.0 6.0 0.00 0.00 0.00 84 1015.0
20260507162804 66 139 5.0 8.0 0.00 0.00 0.00 84 1015.0
20260507162307 66 154 6.0 12.0 0.00 0.00 0.00 83 1015.0
20260507161805 66 156 5.0 9.0 0.00 0.00 0.00 83 1015.1
20260507161304 66 165 6.0 12.0 0.00 0.00 0.00 83 1015.1
20260507160804 66 155 6.0 10.0 0.00 0.00 0.00 83 1015.2
20260507155804 66 156 5.0 12.0 0.00 0.00 0.00 83 1015.3
20260507155306 66 152 6.0 9.0 0.00 0.00 0.00 83 1015.2
20260507154804 66 165 7.0 12.0 0.00 0.00 0.00 83 1015.2
20260507154304 66 159 5.0 9.0 0.00 0.00 0.00 83 1015.2
20260507153306 66 153 5.0 9.0 0.00 0.00 0.00 83 1015.4
20260507152805 66 155 6.0 9.0 0.00 0.00 0.00 83 1015.4
20260507152307 66 177 7.0 10.0 0.00 0.00 0.00 83 1015.5
20260507151805 66 164 5.0 10.0 0.00 0.00 0.00 83 1015.6
20260507151304 66 153 6.0 10.0 0.00 0.00 0.00 83 1015.6
20260507150804 66 162 9.0 10.0 0.00 0.00 0.00 83 1015.6
20260507145306 66 163 3.0 6.0 0.00 0.00 0.00 83 1015.8
20260507144805 66 156 3.0 7.0 0.00 0.00 0.00 84 1015.8
20260507144305 66 136 3.0 9.0 0.00 0.00 0.00 84 1015.8
20260507143804 66 138 3.0 8.0 0.00 0.00 0.00 84 1015.9
20260507143305 66 160 3.0 8.0 0.00 0.00 0.00 84 1015.9
20260507142804 66 150 6.0 9.0 0.00 0.00 0.00 84 1015.9
20260507140804 66 158 5.0 7.0 0.00 0.00 0.00 84 1015.9
20260507135805 66 148 2.0 8.0 0.00 0.00 0.00 84 1015.9
20260507135306 66 162 4.0 12.0 0.00 0.00 0.00 83 1016.0
20260507134805 66 156 3.0 7.0 0.00 0.00 0.00 83 1015.9
20260507134304 66 155 3.0 6.0 0.00 0.00 0.00 83 1016.0
20260507133805 66 153 3.0 6.0 0.00 0.00 0.00 83 1015.9
20260507132805 67 159 5.0 8.0 0.00 0.00 0.00 83 1016.2
20260507132307 67 159 3.0 7.0 0.00 0.00 0.00 83 1016.2
20260507131805 67 160 4.0 12.0 0.00 0.00 0.00 83 1016.3
20260507131305 67 165 5.0 12.0 0.00 0.00 0.00 83 1016.3
20260507130804 67 172 6.0 10.0 0.00 0.00 0.00 83 1016.3
20260507130305 67 167 7.0 12.0 0.00 0.00 0.00 83 1016.3
20260507125808 67 154 5.0 9.0 0.00 0.00 0.00 83 1016.3
20260507125307 67 172 6.0 9.0 0.00 0.00 0.00 83 1016.3
20260507124805 67 144 4.0 12.0 0.00 0.00 0.00 83 1016.3
20260507124304 67 145 6.0 10.0 0.00 0.00 0.00 83 1016.4
20260507123805 68 145 6.0 9.0 0.00 0.00 0.00 82 1016.6
20260507123306 68 131 5.0 9.0 0.00 0.00 0.00 82 1016.6
20260507122804 68 139 8.0 10.0 0.00 0.00 0.00 82 1016.6
20260507121804 68 142 7.0 12.0 0.00 0.00 0.00 82 1016.7
20260507120804 68 126 3.0 10.0 0.00 0.00 0.00 82 1016.8
20260507120305 68 140 8.0 14.0 0.00 0.00 0.00 82 1016.9
20260507115805 68 133 5.0 8.0 0.00 0.00 0.00 82 1016.9
20260507115307 68 113 7.0 12.0 0.00 0.00 0.00 82 1016.9
20260507114805 68 136 6.0 10.0 0.00 0.00 0.00 82 1016.9
20260507114304 68 116 7.0 10.0 0.00 0.00 0.00 82 1016.8
20260507113305 68 117 5.0 9.0 0.00 0.00 0.00 81 1016.9
20260507112804 68 121 5.0 12.0 0.00 0.00 0.00 81 1017.0
20260507112307 68 113 4.0 8.0 0.00 0.00 0.00 81 1017.0
20260507111805 68 113 3.0 6.0 0.00 0.00 0.00 81 1017.0
20260507111305 68 110 5.0 9.0 0.00 0.00 0.00 81 1017.1
20260507110305 68 92 5.0 12.0 0.00 0.00 0.00 81 1016.9
20260507105805 69 107 3.0 6.0 0.00 0.00 0.00 81 1016.9
20260507104804 69 108 5.0 8.0 0.00 0.00 0.00 81 1016.9
20260507104304 69 109 6.0 9.0 0.00 0.00 0.00 81 1016.8
20260507103804 69 100 4.0 7.0 0.00 0.00 0.00 81 1016.9
20260507103304 69 142 3.0 7.0 0.00 0.00 0.00 80 1016.9
20260507102805 69 116 3.0 7.0 0.00 0.00 0.00 80 1016.9
20260507102307 69 115 4.0 8.0 0.00 0.00 0.00 80 1016.8
20260507101804 69 126 3.0 5.0 0.00 0.00 0.00 80 1016.8
20260507101305 69 117 6.0 10.0 0.00 0.00 0.00 80 1016.7
20260507100805 69 109 3.0 7.0 0.00 0.00 0.00 80 1016.6
20260507100304 70 119 3.0 9.0 0.00 0.00 0.00 80 1016.5
20260507095306 70 104 3.0 9.0 0.00 0.00 0.00 80 1016.4
20260507094804 70 115 5.0 9.0 0.00 0.00 0.00 80 1016.3
20260507094305 70 124 4.0 10.0 0.00 0.00 0.00 79 1016.3
20260507093804 70 122 5.0 8.0 0.00 0.00 0.00 79 1016.2
20260507093304 71 92 5.0 8.0 0.00 0.00 0.00 79 1016.0
20260507092805 71 102 6.0 12.0 0.00 0.00 0.00 79 1015.9
20260507091804 71 108 5.0 9.0 0.00 0.00 0.00 78 1016.0
20260507085804 72 130 5.0 10.0 0.00 0.00 0.00 78 1015.8
20260507085306 72 147 5.0 12.0 0.00 0.00 0.00 78 1015.7
20260507084804 72 135 5.0 9.0 0.00 0.00 0.00 78 1015.6
20260507084305 72 124 4.0 9.0 0.00 0.00 0.00 78 1015.6
20260507083805 72 126 2.0 5.0 0.00 0.00 0.00 78 1015.5
20260507082804 72 148 4.0 9.0 0.00 0.00 0.00 78 1015.3
20260507082306 72 138 3.0 7.0 0.00 0.00 0.00 77 1015.3
20260507081804 72 120 3.0 9.0 0.00 0.00 0.00 77 1015.2
20260507081304 73 137 5.0 8.0 0.00 0.00 0.00 77 1015.1
20260507080804 73 141 3.0 6.0 0.00 0.00 0.00 76 1014.9
20260507075804 74 113 5.0 9.0 0.00 0.00 0.00 75 1014.9
20260507075307 74 136 5.0 10.0 0.00 0.00 0.00 74 1014.9
20260507074804 78 3 0.0 0.0 0.00 0.00 0.00 71 1014.8
20260507074304 78 3 0.0 0.0 0.00 0.00 0.00 71 1014.7
20260507073806 78 3 0.0 0.0 0.00 0.00 0.00 71 1014.7
20260507073305 78 3 0.0 0.0 0.00 0.00 0.00 71 1014.6
20260507072307 78 3 0.0 0.0 0.00 0.00 0.00 71 1014.5
20260507071304 78 92 12.0 12.0 0.00 0.00 0.00 71 1014.3
20260507070304 78 132 10.0 16.0 0.00 0.00 0.00 70 1014.2
20260507065804 78 116 4.0 12.0 0.00 0.00 0.00 70 1014.1
20260507065306 78 119 6.0 12.0 0.00 0.00 0.00 70 1014.0
20260507064804 78 145 7.0 15.0 0.00 0.00 0.00 70 1014.0
20260507064304 79 3 0.0 0.0 0.00 0.00 0.00 69 1013.9
20260507063805 79 3 0.0 0.0 0.00 0.00 0.00 69 1013.9
20260507063305 79 3 0.0 0.0 0.00 0.00 0.00 69 1013.8
20260507062805 79 3 0.0 0.0 0.00 0.00 0.00 69 1013.7
20260507062306 79 3 0.0 0.0 0.00 0.00 0.00 69 1013.6
20260507061804 79 3 0.0 0.0 0.00 0.00 0.00 69 1013.5
20260507061304 79 6 1.0 7.0 0.00 0.00 0.00 69 1013.3
20260507060805 79 123 7.0 7.0 0.00 0.00 0.00 69 1013.2
20260507060304 79 123 7.0 8.0 0.00 0.00 0.00 69 1013.2
20260507055805 79 125 4.0 9.0 0.00 0.00 0.00 69 1013.2
20260507055306 79 151 9.0 9.0 0.00 0.00 0.00 69 1013.2
20260507054805 79 126 6.0 9.0 0.00 0.00 0.00 69 1013.2
20260507054304 79 136 5.0 9.0 0.00 0.00 0.00 68 1013.2
20260507053305 80 98 9.0 9.0 0.00 0.00 0.00 67 1013.2
20260507052804 80 137 3.0 9.0 0.00 0.00 0.00 67 1013.1
20260507052306 81 154 3.0 8.0 0.00 0.00 0.00 66 1013.1
20260507051805 81 148 6.0 12.0 0.00 0.00 0.00 67 1013.1
20260507050805 80 166 5.0 9.0 0.00 0.00 0.00 68 1013.1
20260507050304 80 129 3.0 8.0 0.00 0.00 0.00 68 1013.1
20260507045805 80 141 6.0 10.0 0.00 0.00 0.00 68 1013.1
20260507045306 80 122 3.0 7.0 0.00 0.00 0.00 68 1013.2
20260507044804 80 133 5.0 9.0 0.00 0.00 0.00 68 1013.2
20260507044305 80 88 4.0 7.0 0.00 0.00 0.00 67 1013.1
20260507043804 79 115 4.0 10.0 0.00 0.00 0.00 68 1013.2
20260507043305 79 152 7.0 10.0 0.00 0.00 0.00 67 1013.2
20260507042804 79 136 6.0 10.0 0.00 0.00 0.00 67 1013.3
20260507042307 79 134 5.0 9.0 0.00 0.00 0.00 67 1013.3
20260507041805 79 127 5.0 8.0 0.00 0.00 0.00 66 1013.4
20260507041304 80 134 7.0 7.0 0.00 0.00 0.00 66 1013.4
20260507040806 80 134 6.0 9.0 0.00 0.00 0.00 66 1013.4
20260507040305 80 96 4.0 7.0 0.00 0.00 0.00 67 1013.4
20260507035804 80 106 5.0 8.0 0.00 0.00 0.00 66 1013.5
20260507035306 80 118 5.0 8.0 0.00 0.00 0.00 65 1013.4
20260507034806 80 108 3.0 6.0 0.00 0.00 0.00 65 1013.5
20260507034305 80 105 6.0 6.0 0.00 0.00 0.00 65 1013.5
20260507033805 80 105 5.0 7.0 0.00 0.00 0.00 65 1013.5